Location: Mt. Cuba Astronomical Observatory
(39.8100°N, 75.6300°W)
Time: 23:37:52
(UTC-04:00)

Daily predictions for brighter satellites

Satellite Brightness Start Highest point End
(mag) Time Altitude Azimuth Time Altitude Azimuth Time Altitude Azimuth
Cosmos 2221 3.6 21:03:36 10° NNE 21:07:26 29° ENE 21:11:15 10° SE
Envisat 3.1 21:04:47 10° S 21:09:52 82° WSW 21:14:59 10° NNW
Meteor 1-29 3.1 21:08:24 10° NNE 21:11:47 52° E 21:15:08 10° S
SL-8 R/B 4.2 21:10:23 10° WNW 21:15:00 50° SW 21:19:36 10° SE
USA 186 3.6 21:16:43 10° SSW 21:18:32 19° W 21:20:19 10° NW
Cosmos 1140 Rocket 3.5 21:16:03 10° SSW 21:21:14 89° E 21:26:25 10° NNE
Cosmos 2082 4.1 21:15:47 10° SSW 21:21:21 70° WNW 21:27:00 10° NNE
USA 32 4.1 21:16:31 10° S 21:21:42 67° E 21:26:55 10° N
SAR-Lupe-1 4.2 21:19:01 10° SSE 21:22:33 61° ENE 21:26:06 10° N
Cosmos 1242 Rocket 3.9 21:22:29 10° NNE 21:25:40 26° ENE 21:28:21 12° SE
Cosmos 2297 Rocket 2.7 21:22:25 10° SSW 21:28:01 66° WNW 21:33:41 10° NNE
Resurs 01 Rocket 3.9 21:25:30 10° SSW 21:28:58 23° W 21:32:27 10° NW
Cosmos 1939 Rocket 3.6 21:28:59 10° S 21:32:52 53° W 21:36:51 10° NNW
H-2A ROCKET BODY 3.7 21:35:19 12° ESE 21:35:19 12° ESE 21:37:24 10° ESE
Cosmos 1867 3.7 21:30:32 10° S 21:35:46 50° ESE 21:41:02 10° NE
Cosmos 2100 Rocket 4.2 21:33:21 10° N 21:39:34 57° E 21:45:23 12° SSE
Cosmos 1459 Rocket 4.3 21:33:28 10° N 21:39:37 52° E 21:45:03 13° SSE
Cosmos 2061 Rocket 4.4 21:34:09 10° N 21:40:19 48° ENE 21:45:44 14° SSE
MetOp-B 4.4 21:35:50 12° SSE 21:40:41 55° ENE 21:45:55 10° N
Cosmos 1340 Rocket 3.3 21:40:02 10° SSW 21:44:01 64° W 21:48:03 10° N
ATLAS 5 CENTAUR R/B 1.8 21:44:00 10° SW 21:48:37 87° NW 21:53:39 10° NNE
SPOT 5 3.3 21:49:06 17° SE 21:52:37 50° ENE 21:57:29 10° N
Cosmos 2173 Rocket 4.0 21:46:41 10° N 21:52:49 66° E 21:58:06 15° SSE
Cosmos 1850 Rocket 4.0 21:47:43 10° SSW 21:52:53 83° WNW 21:58:06 10° NNE
Lacrosse 5 3.2 21:50:13 10° NNW 21:54:43 31° NE 21:58:57 11° E
Cosmos 2084 3.1 21:50:57 10° SSW 21:54:59 86° SE 21:58:51 10° NE
YAOGAN 6 3.8 21:51:35 10° S 21:55:01 40° W 21:58:30 10° NNW
Helios 1B rocket 4.3 21:53:28 10° N 21:57:12 33° WNW 22:00:55 10° SW
Cosmos 2237 Rocket 3.7 21:52:26 10° NW 21:57:20 32° WSW 22:02:14 10° SSW
Cosmos 1726 3.3 21:54:13 10° NNE 21:57:24 27° ENE 21:58:49 21° ESE
USA 234 3.2 21:52:30 10° NE 21:59:03 72° SE 22:05:34 10° SW
CZ-3B R/B 3.8 21:59:58 10° SW 22:02:52 84° SE 22:12:34 10° NE
Cosmos 1603 4.4 21:58:33 10° N 22:03:55 41° ENE 22:07:25 20° ESE
H-2A R/B 2.6 22:00:47 20° SE 22:04:14 47° ENE 22:09:25 10° N
ERS-1 Rocket 3.3 22:01:42 12° S 22:06:21 64° WSW 22:11:22 10° NNW
Atlas Centaur 2 2.8 22:04:23 10° SW 22:06:37 16° S 22:06:40 16° S
Cosmos 1802 Rocket 3.9 22:05:19 10° N 22:11:29 79° E 22:16:08 18° SSE
Abrixas rocket 4.5 22:09:19 10° NW 22:11:53 21° NNE 22:14:29 10° ENE
Cosmos 1818 3.6 22:07:21 10° NW 22:12:48 75° WSW 22:16:16 23° SSE
Cosmos 1725 Rocket 4.4 22:08:13 10° N 22:14:16 48° ENE 22:17:52 23° SE
Cosmos 1674 3.4 22:12:58 10° SSW 22:16:40 52° W 22:20:21 10° N
Cosmos 1908 3.7 22:13:36 10° NNW 22:17:25 56° W 22:20:03 18° SSW
SL-16 R/B 2.9 22:15:32 10° NNW 22:20:59 50° WSW 22:25:09 17° S
Cosmos 1943 4.4 22:16:12 10° N 22:21:06 29° ENE 22:24:10 18° ESE
Cosmos 220 Rocket 4.5 22:20:53 30° SSE 22:22:26 41° ESE 22:26:35 10° NNE
Landsat 7 4.2 22:20:56 27° SE 22:23:10 48° ENE 22:27:44 10° N
ARGOS 3.3 22:20:18 19° S 22:24:13 75° WSW 22:29:39 10° NNW
Cosmos 1408 Rocket 3.6 22:23:35 17° SSW 22:26:53 76° W 22:31:13 10° N
KORONAS-FOTON 4.2 22:24:13 16° SSW 22:27:09 61° W 22:30:55 10° N
Tiangong 1 1.9 22:32:58 10° WNW 22:35:39 42° N 22:36:45 27° NE
DMSP B5D2-2 4.1 22:32:16 10° NNE 22:37:28 64° ESE 22:40:08 29° S
Terra 2.3 22:36:22 32° ESE 22:38:06 47° ENE 22:42:40 10° N
Cosmos 2058 3.7 22:38:51 32° ESE 22:39:17 33° E 22:43:04 10° NNE
Cosmos 1703 4.5 22:40:50 27° E 22:40:50 27° E 22:44:09 10° NNE
Meteor 1-11 4.5 22:40:37 31° SSE 22:43:09 53° E 22:48:47 10° NNE
Cosmos 2016 Rocket 4.2 22:37:12 10° NNW 22:43:26 70° W 22:47:32 22° S
Cosmos 1356 4.3 22:44:13 35° E 22:44:13 35° E 22:47:07 10° NNE
Cosmos 1500 Rocket 3.6 22:45:14 42° SSE 22:46:28 60° E 22:50:52 10° NNE
Cosmos 332 Rocket 3.8 22:47:56 10° NNW 22:52:51 85° WSW 22:54:33 42° SSE
ERBS 3.5 22:51:00 10° NNW 22:54:07 33° NE 22:54:40 31° ENE
Cosmos 2151 3.0 22:54:02 51° SE 22:54:46 60° E 22:59:02 10° NNE
Cosmos 1814 Rocket 4.0 22:50:54 10° NNW 22:56:16 87° ENE 22:58:11 41° SSE
CARTOSAT-1 3.5 22:55:32 50° SE 22:56:33 74° ENE 23:00:53 10° N
Meteor 1-27 4.4 22:52:38 10° N 22:58:26 63° E 23:00:29 39° SE
RESURS DK-1 2.4 22:54:22 10° NNW 22:58:32 72° WSW 22:59:21 54° S
SPOT 1/Viking Rocket 4.1 22:56:35 27° SSW 22:59:10 51° W 23:04:11 10° NNW
Cosmos 1486 Rocket 3.9 22:57:03 32° S 22:59:31 79° ESE 23:04:50 10° NNE
Cosmos 2233 Rocket 3.9 23:02:42 10° N 23:08:57 81° E 23:11:20 40° SSE
Cosmos 841 Rocket 3.5 23:04:35 10° NNW 23:09:51 70° ENE 23:11:13 48° SE
Cosmos 1328 Rocket 4.3 23:07:23 10° NNW 23:11:33 46° W 23:12:50 35° SW
SL-14 R/B 4.5 23:10:43 26° SW 23:12:24 39° WNW 23:16:08 10° N
Cosmos 2228 Rocket 3.7 23:08:35 10° NNW 23:13:02 51° W 23:14:28 37° SW
Cosmos 1763 Rocket 3.3 23:08:11 10° NNW 23:13:19 85° WSW 23:14:35 52° S
Cosmos 1515 Rocket 3.8 23:10:51 10° NNW 23:15:08 61° W 23:16:02 48° SW
H-2A R/B 2.0 23:17:20 65° S 23:17:57 83° WSW 23:22:15 10° NNW
Cosmos 2263 Rocket 2.0 23:21:44 40° SSW 23:23:51 87° ESE 23:29:28 10° NNE
Cosmos 1151 Rocket 3.2 23:19:50 10° NNW 23:24:11 64° W 23:24:51 55° SW
Cosmos 1300 4.2 23:20:56 10° NNW 23:24:12 27° W 23:25:01 25° WSW
Cosmos 1626 2.2 23:25:43 75° NW 23:25:43 75° NW 23:29:17 10° N
SL-19 R/B 4.3 23:23:09 10° N 23:28:28 73° WNW 23:30:50 35° SSW
Cosmos 1726 4.5 23:30:11 10° NW 23:32:27 16° W 23:33:26 14° WSW
IGS 5A 4.2 23:33:58 39° WSW 23:34:25 41° W 23:38:22 10° NNW
Lacrosse 5 2.1 23:32:58 10° NW 23:37:52 50° SW 23:38:08 50° SW
Cosmos 371 Rocket 4.4 23:39:18 10° NW 23:43:35 32° W 23:44:22 30° WSW
H-2A R/B 4.0 23:41:24 16° SW 23:43:52 21° W 23:47:54 10° NW
Cosmos 1503 Rocket 4.0 23:43:58 54° SW 23:45:09 79° WNW 23:50:21 10° NNE
Abrixas rocket 4.0 23:45:46 10° NW 23:47:34 30° NW 23:47:34 30° NW
Cosmos 2285 Rocket 3.9 23:42:40 10° NNW 23:49:03 87° ENE 23:50:38 54° SSE
Cosmos 1869 4.0 23:47:05 10° N 23:50:18 48° NE 23:50:18 48° NE
CZ-4C R/B 3.5 23:53:11 74° WNW 23:53:11 74° WNW 23:57:22 10° NNW
